Bemidji, MN

10:43 PM CDT on May 25, 2017 (GMT -0500)
Bemidji-Beltrami County

Weather History for KBJI - February, 2013

Change the Weather History Date:

Saturday, February 23, 2013

  Actual Average Record
Temperature  
Mean Temperature 16 °F -  
Max Temperature 25 °F 27 °F 58 °F (1958)
Min Temperature 6 °F 5 °F -28 °F (1957)
Degree Days  
Heating Degree Days 50    
Moisture  
Dew Point 14 °F    
Average Humidity 91    
Maximum Humidity 96    
Minimum Humidity 84    
Precipitation  
Precipitation 0.00 in - - ()
Sea Level Pressure  
Sea Level Pressure 29.84 in    
Wind  
Wind Speed 1 mph (WNW)    
Max Wind Speed 6 mph    
Max Gust Speed -    
Visibility 8 miles    
Events Fog , Snow    
Averages and records for this station are not official NWS values.
T = Trace of Precipitation, MM = Missing Value Source: NWS Daily Summary

Daily Weather History Graph

Daily Weather History Graph

Search for Another Location

Airport or City:

Trip Planner

Search our weather history database for the weather conditions in past years. The results will help you decide how hot, cold, wet, or windy it might be!

Date:

Astronomy

Feb. 23, 2013 Rise Set
Actual Time 7:10 AM CST 5:56 PM CST
Civil Twilight 6:39 AM CST 6:27 PM CST
Nautical Twilight 6:04 AM CST 7:02 PM CST
Astronomical Twilight 5:28 AM CST 7:38 PM CST
Moon 4:03 PM CST (2/23) 5:39 AM CST (2/23)
Length of Visible Light 11h 47m
Length of Day
10h 45m
Waxing Gibbous, 95% of the Moon is Illuminated
Feb 23
Waxing Gibbous
Feb 25
Full
Mar 4
Last Quarter
Mar 11
New
Mar 19
First Quarter

Hourly Weather History & Observations

Time (CST) Temp. Windchill Dew Point Humidity Pressure Visibility Wind Dir Wind Speed Gust Speed Precip Events Conditions
12:15 AM 12.9 °F - 10.8 °F 91% 29.84 in 10.0 mi Calm Calm - N/A   Overcast
12:35 AM 12.4 °F - 10.2 °F 91% 29.84 in 10.0 mi Calm Calm - N/A   Overcast
12:55 AM 11.7 °F - 9.5 °F 91% 29.84 in 10.0 mi Calm Calm - N/A   Overcast
1:15 AM 11.1 °F 4.9 °F 9.0 °F 91% 29.84 in 10.0 mi WNW 3.5 mph - N/A   Overcast
1:35 AM 12.2 °F - 10.0 °F 91% 29.83 in 10.0 mi Calm Calm - N/A   Overcast
1:55 AM 13.5 °F - 11.3 °F 91% 29.83 in 10.0 mi Calm Calm - N/A   Overcast
2:15 AM 12.7 °F - 10.6 °F 91% 29.82 in 10.0 mi Calm Calm - N/A   Overcast
2:35 AM 11.8 °F - 9.7 °F 91% 29.82 in 10.0 mi Calm Calm - N/A   Scattered Clouds
2:55 AM 10.0 °F - 7.5 °F 90% 29.82 in 10.0 mi Calm Calm - N/A Snow Light Snow
3:15 AM 9.1 °F - 6.8 °F 90% 29.81 in 10.0 mi Calm Calm - N/A Snow Light Snow
3:35 AM 10.0 °F - 7.7 °F 90% 29.81 in 10.0 mi Calm Calm - N/A Snow Light Snow
3:55 AM 9.0 °F - 6.6 °F 90% 29.80 in 10.0 mi Calm Calm - N/A Snow Light Snow
4:15 AM 7.3 °F - 4.8 °F 89% 29.81 in 10.0 mi Calm Calm - N/A Snow Light Snow
4:35 AM 6.1 °F -2.8 °F 3.6 °F 89% 29.81 in 10.0 mi West 4.6 mph - N/A   Overcast
4:55 AM 9.1 °F -0.7 °F 7.0 °F 91% 29.81 in 1.0 mi West 5.8 mph - N/A   Overcast
5:15 AM 10.6 °F - 8.4 °F 91% 29.81 in 7.0 mi Calm Calm - N/A   Overcast
5:55 AM 11.3 °F 5.1 °F 9.0 °F 90% 29.82 in 0.5 mi WNW 3.5 mph - N/A Fog Light Freezing Fog
6:15 AM 11.3 °F - 9.1 °F 91% 29.82 in 0.2 mi Calm Calm - N/A Fog Light Freezing Fog
6:35 AM 10.9 °F - 8.8 °F 91% 29.82 in 0.2 mi Calm Calm - N/A Fog Light Freezing Fog
6:55 AM 10.2 °F - 7.9 °F 90% 29.83 in 0.2 mi Calm Calm - N/A Fog Light Freezing Fog
7:15 AM 10.4 °F - 8.2 °F 91% 29.83 in 5.0 mi Calm Calm - N/A   Overcast
7:35 AM 10.6 °F - 8.4 °F 91% 29.82 in 4.0 mi Calm Calm - N/A   Overcast
7:55 AM 11.1 °F - 8.8 °F 90% 29.82 in 10.0 mi Calm Calm - N/A   Overcast
8:15 AM 11.7 °F - 9.3 °F 90% 29.82 in 5.0 mi Calm Calm - N/A   Overcast
8:55 AM 13.1 °F - 10.9 °F 91% 29.83 in 0.5 mi Calm Calm - N/A Fog Light Freezing Fog
9:15 AM 14.4 °F - 12.4 °F 92% 29.83 in 10.0 mi Calm Calm - N/A   Overcast
9:55 AM 16.9 °F - 15.3 °F 93% 29.83 in 3.0 mi Calm Calm - N/A   Overcast
10:15 AM 18.0 °F - 16.2 °F 93% 29.83 in 4.0 mi Calm Calm - N/A   Overcast
10:35 AM 18.7 °F - 17.2 °F 94% 29.83 in 10.0 mi Calm Calm - N/A   Overcast
10:55 AM 19.6 °F - 18.1 °F 94% 29.84 in 10.0 mi Calm Calm - N/A   Overcast
11:15 AM 20.3 °F - 18.9 °F 94% 29.84 in 7.0 mi Calm Calm - N/A   Overcast
11:35 AM 21.2 °F - 19.9 °F 95% 29.84 in 10.0 mi Calm Calm - N/A   Overcast
11:55 AM 21.9 °F 17.2 °F 20.7 °F 95% 29.84 in 10.0 mi North 3.5 mph - N/A   Overcast
12:15 PM 22.1 °F - 21.0 °F 96% 29.83 in 10.0 mi Calm Calm - N/A   Overcast
12:35 PM 22.1 °F - 20.8 °F 95% 29.84 in 10.0 mi Calm Calm - N/A   Overcast
12:55 PM 22.3 °F - 21.0 °F 95% 29.82 in 7.0 mi Calm Calm - N/A   Overcast
1:15 PM 22.5 °F - 21.2 °F 95% 29.82 in 7.0 mi Calm Calm - N/A   Overcast
1:35 PM 22.8 °F - 21.6 °F 95% 29.82 in 10.0 mi Calm Calm - N/A   Overcast
1:55 PM 23.0 °F - 21.7 °F 95% 29.81 in 10.0 mi Calm Calm - N/A   Overcast
2:15 PM 23.4 °F 18.9 °F 21.9 °F 94% 29.81 in 10.0 mi West 3.5 mph - N/A   Overcast
2:55 PM 23.5 °F - 21.9 °F 94% 29.82 in 7.0 mi Calm Calm - N/A   Overcast
3:15 PM 23.9 °F - 21.9 °F 92% 29.81 in 7.0 mi Calm Calm - N/A   Overcast
3:35 PM 24.4 °F - 21.6 °F 89% 29.81 in 7.0 mi Calm Calm - N/A   Overcast
3:55 PM 24.8 °F - 21.0 °F 86% 29.81 in 7.0 mi Calm Calm - N/A   Overcast
4:15 PM 25.0 °F 20.7 °F 20.8 °F 84% 29.82 in 7.0 mi WSW 3.5 mph - N/A   Overcast
4:35 PM 24.8 °F - 20.5 °F 84% 29.82 in 10.0 mi Calm Calm - N/A   Overcast
4:55 PM 24.8 °F - 20.5 °F 84% 29.83 in 10.0 mi Calm Calm - N/A   Overcast
5:15 PM 24.8 °F - 20.5 °F 84% 29.84 in 10.0 mi Calm Calm - N/A   Overcast
5:35 PM 24.6 °F - 20.3 °F 84% 29.84 in 7.0 mi Calm Calm - N/A   Overcast
5:55 PM 24.4 °F - 20.3 °F 84% 29.84 in 10.0 mi Calm Calm - N/A   Overcast
6:15 PM 24.4 °F - 20.3 °F 84% 29.84 in 7.0 mi Calm Calm - N/A   Overcast
6:35 PM 23.9 °F 19.5 °F 20.3 °F 86% 29.84 in 10.0 mi NW 3.5 mph - N/A   Overcast
6:55 PM 23.7 °F - 19.9 °F 85% 29.85 in 10.0 mi Calm Calm - N/A   Overcast
7:15 PM 22.8 °F - 19.6 °F 87% 29.85 in 10.0 mi Calm Calm - N/A   Overcast
7:55 PM 20.7 °F - 18.5 °F 91% 29.85 in 10.0 mi Calm Calm - N/A   Scattered Clouds
8:15 PM 19.2 °F - 17.4 °F 93% 29.86 in 10.0 mi Calm Calm - N/A   Clear
8:55 PM 15.6 °F - 14.0 °F 93% 29.87 in 10.0 mi Calm Calm - N/A   Clear
9:15 PM 13.3 °F - 11.7 °F 93% 29.87 in 7.0 mi Calm Calm - N/A   Clear
9:35 PM 13.6 °F - 12.4 °F 95% 29.88 in 10.0 mi Calm Calm - N/A   Clear
9:55 PM 13.3 °F - 11.7 °F 93% 29.88 in 4.0 mi Calm Calm - N/A   Clear
10:15 PM 9.7 °F - 7.7 °F 92% 29.89 in 0.5 mi Calm Calm - N/A Fog Light Freezing Fog
10:35 PM 7.7 °F - 5.4 °F 90% 29.89 in 7.0 mi Calm Calm - N/A   Overcast
10:55 PM 7.9 °F - 5.4 °F 89% 29.89 in 5.0 mi Calm Calm - N/A   Mostly Cloudy
11:15 PM 9.0 °F - 6.4 °F 89% 29.90 in 10.0 mi Calm Calm - N/A   Scattered Clouds
11:35 PM 7.3 °F - 4.6 °F 89% 29.90 in 10.0 mi Calm Calm - N/A   Mostly Cloudy
11:55 PM 7.0 °F 0.1 °F 4.5 °F 89% 29.91 in 1.2 mi West 3.5 mph - N/A   Overcast